Showing default

EUTE 21B, 38992

Orbit data source: Space-Track

EUTE 21B, 38992 is a payload satellite owned by EutelsatSA (FR) in GEO that was launched on Sat, 10 Nov 2012 UTC via an ARIANE 5ECA launch vehicle from the French Guiana (FRGUI). Payload-class satellites include a variety of spacecraft equipped with specific instruments for various scientific and technological missions. These include communications satellites like Starlink; space stations such as the ISS; scientific satellites like the Hubble; Earth observation satellites from companies like Planet Labs, Umbra, and HawkEye 360; GPS; miniature CubeSats for education and research; and military/defense satellites.

Not visible in the next 10 days
Identifier
38992, 2012-062B
Orbit
GEO
Last TLE update
9 hours ago
Origin
Manufacturer
Thales Alenia
Mission
Operational Commercial Communications
Bus & Motor
SPACEBUS 4000C3, S400
Mass
5,012 kg wet, 2,060 kg dry
Launch date (UTC)
2012-11-10 (13 years ago)
Launch vehicle
ARIANE 5ECA
Launch site
French Guiana (FRGUI)
Object type
Payload
Rocket body
Debris
Shape & HBR
Box + 2 Pan, 37 m
Radar Cross Section
34.184 m², Large (>1 m²)

Expand to show TLE details & history

TLE from 9 hours ago
0 EUTE 21B
1 38992U 12062B   25182.78569722  .00000134  00000-0  00000-0 0  9994
2 38992   0.0649   4.9953 0002746  99.8120 119.7068  1.00270299 46316
Epoch: 2025-07-01T18:51Z
TLE epoch observation values (Epoch: 2025-07-01T18:51:24.239Z)
Latitude
-0.05017°
Longitude
21.62596°
Altitude
35,792.282 km
Speed
3.074 km/s
True Right ascension
14h 58m 12s
True Declination
0° 03' 00"
Sunlit
Object was in daylight at epoch
Visualization orbit readout
Latitude
-0.00786°
Longitude
158.9773°
Altitude
35,789.04 km
Speed
3.075 km/s
Apparent Right ascension
00h 27m 32s
Apparent Declination
-5° 08' 47"
Sunlit
Object is in daylight
Visualization observer readout
Local Sidereal Time
15:40:53
Azimuth
64.43° ENE
Elevation
-34.426°
Doppler factor
1
Orbital elements
Apogee altitude
35,799.661 km
Perigee altitude
35,776.503 km
Semi-major axis
42,166.219 km
Eccentricity
0.00027
Inclination
0.0649°
RAAN
4.9953°
Arg. of periapsis
99.812°
True anomaly
Unknown
Mean anomaly
119.7068°
Eccentric anomaly
Unknown
Mean motion
0.25067 °/min
Orbital period
1,436.17 mins
BSTAR
0
Loading historical data...
38992 neighbors
Loading maneuver chart data...
Loading SW <> Apogee altitude chart data...
Loading historical data...
Loading historical data...
Loading historical data...
Loading historical data...
Loading historical data...
Loading historical data...
Loading historical data...
Other satellites on launch #62 in the year 2012 (2012-11-10 UTC)

EUTE 21B Visibility

Observer location: undefined°, undefined°

EUTE 21B is likely not visible in the next few days
Span
Click to sort rows by Start time (UTC) header in descending order
Start Az.
Max El. time (UTC)
Max El. Az.
Max El.
End time (UTC)
End Az.
|